Location: Detroit
(42.3310°N, 83.0460°W)
Time: 21:21:54
(UTC-05:00)

Tiros 1 despin weight - Pass Details

Date: 07 December 2023
Orbit: 581 x 624 km, 48.2° (Epoch: 02 March)

Event Time Altitude Azimuth Distance (km) Brightness Sun altitude
Rises 17:32:21 0° 234° (SW) 2,810 ? -6.2°
Reaches altitude 10° 17:34:38 10° 231° (SW) 1,905 ? -6.6°
Maximum altitude 17:38:58 68° 149° (SSE) 628 ? -7.3°
Enters shadow 17:43:15 10° 67° (ENE) 1,889 ? -8.0°
